Flag for Canada Weather past 2 weeks in Steinbach, Manitoba, Canada

Now
65 °F

Mild.


Feels Like: 65 °F
Forecast: 58 / 74 °F
Wind: 6 mph from Southwest

Location: Winnipeg The Forks

Current Time: Sep 19, 2014 at 9:02:36 AM

Latest Report: Sep 19, 2014 at 8:00 AM


Visibility: N/A

Pressure: 29.44 "Hg

Humidity: 74%

Dew point: 56 °F

Location of SteinbachLocation

Historic Weather in Steinbach — Graph

°F

Steinbach temperature yesterday

Maximum temperature yesterday: 69 °F (at 11:00 PM)
Minimum temperature yesterday: 36 °F (at 4:00 AM)
Average temperature yesterday: 53 °F

Past Weeks' High & Low Weather Summary

 TemperatureHumidityPressure
High76 °F (Sep 7, 5:00 PM)99% (Sep 6, 7:00 AM)30.44 "Hg (Sep 6, 7:00 AM)
Low36 °F (Sep 18, 4:00 AM)24% (Sep 15, 4:00 PM)29.46 "Hg (Sep 19, 6:00 AM)
Average54 °F67%30.03 "Hg
* Reported Sep 4 7:00 AM — Sep 19 7:00 AM, Steinbach, Weather by CustomWeather, © 2014

Note: Actual official high and low records may vary slightly from our data, if they occured in-between our weather recording intervals... More about our weather records

Advertising

Steinbach weather history for previous 24 hours

 ConditionsComfort  
Time TempWeatherWind HumidityBarometerVisibility
7:00 AM
Sep 19
65 °FMild.6 mph79%29.46 "HgN/A
6:00 AM66 °FMild.6 mph79%29.46 "HgN/A
5:00 AM67 °FMild.6 mph78%29.46 "HgN/A
4:00 AM68 °FMild.7 mph75%29.48 "HgN/A
3:00 AM68 °FMild.7 mph74%29.48 "HgN/A
2:00 AM68 °FMild.8 mph74%29.50 "HgN/A
1:00 AM68 °FMild.7 mph72%29.51 "HgN/A
12:00 AM69 °FMild.8 mph70%29.52 "HgN/A
11:00 PM
Sep 18
69 °FMild.8 mph70%29.56 "HgN/A
10:00 PM68 °FMild.5 mph70%29.60 "HgN/A
9:00 PM62 °FCool.3 mph79%29.63 "HgN/A
8:00 PM65 °FMild.1 mph71%29.65 "HgN/A
7:00 PM67 °FMild.2 mph66%29.65 "HgN/A
6:00 PM68 °FMild.2 mph62%29.70 "HgN/A
5:00 PM65 °FMild.2 mph66%29.75 "HgN/A
4:00 PM66 °FMild.3 mph63%29.78 "HgN/A
3:00 PM64 °FMild.2 mph67%29.82 "HgN/A
2:00 PM61 °FCool.3 mph65%29.87 "HgN/A
1:00 PM59 °FCool.2 mph70%29.91 "HgN/A
12:00 PM57 °FCool.3 mph70%29.94 "HgN/A
11:00 AM53 °FCool.2 mph74%29.95 "HgN/A
10:00 AM49 °FCool.2 mph80%29.97 "HgN/A
9:00 AM42 °FQuite cool.1 mph85%29.99 "HgN/A
Weather by CustomWeather, © 2014

See weather overviewHow to use our weather pages